Time,TemperatureF,DewpointF,PressureIn,WindDirection,WindDirectionDegrees,WindSpeedMPH,WindSpeedGustMPH,Humidity,HourlyPrecipIn,Conditions,Clouds,dailyrainin,SoftwareType,DateUTC
2013-10-11 00:01:00,53.6,51.9,30.11,NNE,14,0.0,0.0,94,0.00,,,0.00,WeatherCatV1.21B27,2013-10-11 04:01:00,
2013-10-11 00:06:00,53.5,51.8,30.11,NNE,14,0.0,0.0,94,0.00,,,0.00,WeatherCatV1.21B27,2013-10-11 04:06:00,
2013-10-11 00:11:00,53.3,51.6,30.11,NNE,14,0.0,0.0,94,0.00,,,0.00,WeatherCatV1.21B27,2013-10-11 04:11:00,
2013-10-11 00:16:00,53.3,51.9,30.11,NNE,14,0.0,0.0,95,0.00,,,0.00,WeatherCatV1.21B27,2013-10-11 04:16:00,
2013-10-11 00:21:00,53.2,51.8,30.11,NNE,14,0.0,0.0,95,0.00,,,0.00,WeatherCatV1.21B27,2013-10-11 04:21:00,
2013-10-11 00:26:00,53.1,51.7,30.11,NNE,14,0.0,0.0,95,0.00,,,0.00,WeatherCatV1.21B27,2013-10-11 04:26:00,
2013-10-11 00:31:00,53.1,51.7,30.11,NNE,14,0.0,0.0,95,0.00,,,0.00,WeatherCatV1.21B27,2013-10-11 04:31:00,
2013-10-11 00:36:00,53.1,51.7,30.11,NNE,14,0.0,0.0,95,0.00,,,0.00,WeatherCatV1.21B27,2013-10-11 04:36:00,
2013-10-11 00:41:00,53.1,51.7,30.11,NNE,14,0.0,0.0,95,0.00,,,0.00,WeatherCatV1.21B27,2013-10-11 04:41:00,
2013-10-11 00:46:00,53.1,51.7,30.10,NNE,14,0.0,0.0,95,0.00,,,0.00,WeatherCatV1.21B27,2013-10-11 04:46:00,
2013-10-11 00:51:00,53.2,51.8,30.10,NNE,14,0.0,0.0,95,0.00,,,0.00,WeatherCatV1.21B27,2013-10-11 04:51:00,
2013-10-11 00:56:00,53.2,51.8,30.10,NNE,14,0.0,0.0,95,0.00,,,0.00,WeatherCatV1.21B27,2013-10-11 04:56:00,
2013-10-11 01:01:00,53.3,51.9,30.10,NNE,14,0.0,0.0,95,0.00,,,0.00,WeatherCatV1.21B27,2013-10-11 05:01:00,
2013-10-11 01:06:00,53.4,52.3,30.10,NNE,14,0.0,0.0,96,0.00,,,0.00,WeatherCatV1.21B27,2013-10-11 05:06:00,
2013-10-11 01:11:00,53.5,52.4,30.10,NNE,14,0.0,0.0,96,0.00,,,0.00,WeatherCatV1.21B27,2013-10-11 05:11:00,
2013-10-11 01:16:00,53.6,52.5,30.10,NNE,14,0.0,0.0,96,0.00,,,0.00,WeatherCatV1.21B27,2013-10-11 05:16:00,
2013-10-11 01:21:00,53.7,52.3,30.09,NNE,14,0.0,0.0,95,0.00,,,0.00,WeatherCatV1.21B27,2013-10-11 05:21:00,
2013-10-11 01:26:00,53.7,52.3,30.09,NNE,14,0.0,0.0,95,0.00,,,0.00,WeatherCatV1.21B27,2013-10-11 05:26:00,
2013-10-11 01:31:00,53.7,52.3,30.09,NNE,14,0.0,0.0,95,0.00,,,0.00,WeatherCatV1.21B27,2013-10-11 05:31:00,
2013-10-11 01:36:00,53.7,52.3,30.09,NNE,14,0.0,0.0,95,0.00,,,0.00,WeatherCatV1.21B27,2013-10-11 05:36:00,
2013-10-11 01:41:00,53.8,52.4,30.09,NNE,14,0.0,0.0,95,0.00,,,0.00,WeatherCatV1.21B27,2013-10-11 05:41:00,
2013-10-11 01:46:00,53.7,52.3,30.08,NNE,14,0.0,0.0,95,0.00,,,0.00,WeatherCatV1.21B27,2013-10-11 05:46:00,
2013-10-11 01:51:00,53.7,52.3,30.08,NNE,14,0.0,0.0,95,0.00,,,0.00,WeatherCatV1.21B27,2013-10-11 05:51:00,
2013-10-11 01:56:00,53.6,52.2,30.08,NNE,14,0.0,0.0,95,0.00,,,0.00,WeatherCatV1.21B27,2013-10-11 05:56:00,
2013-10-11 02:01:00,53.6,52.2,30.08,NNE,14,0.0,0.0,95,0.00,,,0.00,WeatherCatV1.21B27,2013-10-11 06:01:00,
2013-10-11 02:06:00,53.5,52.1,30.08,NNE,14,0.0,0.0,95,0.00,,,0.00,WeatherCatV1.21B27,2013-10-11 06:06:00,
2013-10-11 02:11:00,53.5,52.1,30.08,NNE,14,0.0,0.0,95,0.00,,,0.00,WeatherCatV1.21B27,2013-10-11 06:11:00,
2013-10-11 02:16:00,53.4,52.0,30.08,NNE,14,0.0,0.0,95,0.00,,,0.00,WeatherCatV1.21B27,2013-10-11 06:16:00,
2013-10-11 02:21:00,53.4,52.0,30.08,NNE,14,0.0,0.0,95,0.00,,,0.00,WeatherCatV1.21B27,2013-10-11 06:21:00,
2013-10-11 02:26:00,53.4,52.0,30.08,NNE,14,0.0,0.0,95,0.00,,,0.00,WeatherCatV1.21B27,2013-10-11 06:26:00,
2013-10-11 02:31:00,53.4,52.0,30.08,NNE,14,0.0,0.0,95,0.00,,,0.00,WeatherCatV1.21B27,2013-10-11 06:31:00,
2013-10-11 02:36:00,53.5,52.1,30.08,NNE,14,0.0,0.0,95,0.00,,,0.00,WeatherCatV1.21B27,2013-10-11 06:36:00,
2013-10-11 02:41:00,53.5,52.1,30.08,NNE,14,0.0,0.0,95,0.00,,,0.00,WeatherCatV1.21B27,2013-10-11 06:41:00,
2013-10-11 02:46:00,53.6,52.2,30.08,NNE,14,0.0,0.0,95,0.00,,,0.00,WeatherCatV1.21B27,2013-10-11 06:46:00,
2013-10-11 02:51:00,53.6,52.2,30.08,NNE,14,0.0,0.0,95,0.00,,,0.00,WeatherCatV1.21B27,2013-10-11 06:51:00,
2013-10-11 02:56:00,53.7,52.3,30.08,NNE,14,0.0,0.0,95,0.00,,,0.00,WeatherCatV1.21B27,2013-10-11 06:56:00,
2013-10-11 03:01:00,53.7,52.3,30.08,NNE,14,0.0,0.0,95,0.00,,,0.00,WeatherCatV1.21B27,2013-10-11 07:01:00,
2013-10-11 03:06:00,53.8,52.4,30.08,NNE,14,0.0,0.0,95,0.00,,,0.00,WeatherCatV1.21B27,2013-10-11 07:06:00,
2013-10-11 03:11:00,53.9,52.5,30.07,NNE,14,0.0,0.0,95,0.00,,,0.00,WeatherCatV1.21B27,2013-10-11 07:11:00,
2013-10-11 03:16:00,54.0,52.6,30.07,NNE,14,2.0,2.0,95,0.00,,,0.00,WeatherCatV1.21B27,2013-10-11 07:16:00,
2013-10-11 03:21:00,54.1,52.4,30.07,NNE,14,0.0,0.0,94,0.00,,,0.00,WeatherCatV1.21B27,2013-10-11 07:21:00,
2013-10-11 03:26:00,54.2,52.5,30.07,NNE,14,0.0,0.0,94,0.00,,,0.00,WeatherCatV1.21B27,2013-10-11 07:26:00,
2013-10-11 03:31:00,54.2,52.5,30.07,NNE,14,0.0,0.0,94,0.00,,,0.00,WeatherCatV1.21B27,2013-10-11 07:31:00,
2013-10-11 03:36:00,54.3,52.6,30.07,NNE,14,0.0,0.0,94,0.00,,,0.00,WeatherCatV1.21B27,2013-10-11 07:36:00,
2013-10-11 03:41:00,54.4,52.7,30.07,NNE,14,0.0,0.0,94,0.00,,,0.00,WeatherCatV1.21B27,2013-10-11 07:41:00,
2013-10-11 03:46:00,54.4,52.7,30.07,NNE,21,0.0,0.0,94,0.00,,,0.00,WeatherCatV1.21B27,2013-10-11 07:46:00,
2013-10-11 03:51:00,54.4,52.7,30.07,NNE,21,0.0,0.0,94,0.00,,,0.00,WeatherCatV1.21B27,2013-10-11 07:51:00,
2013-10-11 03:56:00,54.4,52.7,30.07,NNE,21,0.0,0.0,94,0.00,,,0.00,WeatherCatV1.21B27,2013-10-11 07:56:00,
2013-10-11 04:01:00,54.4,52.7,30.07,NNE,21,0.0,0.0,94,0.00,,,0.00,WeatherCatV1.21B27,2013-10-11 08:01:00,
2013-10-11 04:06:00,54.3,52.6,30.07,NNE,21,0.0,0.0,94,0.00,,,0.00,WeatherCatV1.21B27,2013-10-11 08:06:00,
2013-10-11 04:11:00,54.3,52.6,30.07,NNE,21,0.0,0.0,94,0.00,,,0.00,WeatherCatV1.21B27,2013-10-11 08:11:00,
2013-10-11 04:16:00,54.3,52.6,30.07,NNE,21,0.0,0.0,94,0.00,,,0.00,WeatherCatV1.21B27,2013-10-11 08:16:00,
2013-10-11 04:21:00,54.3,52.6,30.07,NNE,21,0.0,0.0,94,0.00,,,0.00,WeatherCatV1.21B27,2013-10-11 08:21:00,
2013-10-11 04:26:00,54.2,52.5,30.07,NE,46,0.0,0.0,94,0.00,,,0.00,WeatherCatV1.21B27,2013-10-11 08:26:00,
2013-10-11 04:31:00,54.2,52.5,30.07,North,350,0.0,2.0,94,0.00,,,0.00,WeatherCatV1.21B27,2013-10-11 08:31:00,
2013-10-11 04:36:00,54.2,52.5,30.07,North,350,0.0,0.0,94,0.00,,,0.00,WeatherCatV1.21B27,2013-10-11 08:36:00,
2013-10-11 04:41:00,54.2,52.5,30.07,North,350,0.0,0.0,94,0.00,,,0.00,WeatherCatV1.21B27,2013-10-11 08:41:00,
2013-10-11 04:46:00,54.2,52.5,30.07,North,350,0.0,0.0,94,0.00,,,0.00,WeatherCatV1.21B27,2013-10-11 08:46:00,
2013-10-11 04:51:00,54.1,52.4,30.07,North,350,0.0,0.0,94,0.00,,,0.00,WeatherCatV1.21B27,2013-10-11 08:51:00,
2013-10-11 04:56:00,54.0,52.0,30.07,North,350,0.0,0.0,93,0.00,,,0.00,WeatherCatV1.21B27,2013-10-11 08:56:00,
2013-10-11 05:01:00,53.9,51.9,30.07,West,281,0.0,0.0,93,0.00,,,0.00,WeatherCatV1.21B27,2013-10-11 09:01:00,
2013-10-11 05:06:00,53.7,52.0,30.07,West,281,0.0,0.0,94,0.00,,,0.00,WeatherCatV1.21B27,2013-10-11 09:06:00,
2013-10-11 05:11:00,53.6,51.9,30.07,West,281,0.0,0.0,94,0.00,,,0.00,WeatherCatV1.21B27,2013-10-11 09:11:00,
2013-10-11 05:16:00,53.5,51.8,30.07,West,281,0.0,0.0,94,0.00,,,0.00,WeatherCatV1.21B27,2013-10-11 09:16:00,
2013-10-11 05:21:00,53.3,51.6,30.07,South,169,0.0,0.0,94,0.00,,,0.00,WeatherCatV1.21B27,2013-10-11 09:21:00,
2013-10-11 05:26:00,53.2,51.5,30.07,South,169,0.0,0.0,94,0.00,,,0.00,WeatherCatV1.21B27,2013-10-11 09:26:00,
2013-10-11 05:31:00,53.1,51.4,30.07,South,169,0.0,0.0,94,0.00,,,0.00,WeatherCatV1.21B27,2013-10-11 09:31:00,
2013-10-11 05:36:00,53.1,51.4,30.07,South,169,0.0,0.0,94,0.00,,,0.00,WeatherCatV1.21B27,2013-10-11 09:36:00,
2013-10-11 05:41:00,53.0,51.3,30.07,South,169,0.0,0.0,94,0.00,,,0.00,WeatherCatV1.21B27,2013-10-11 09:41:00,
2013-10-11 05:46:00,52.9,51.2,30.07,South,169,0.0,0.0,94,0.00,,,0.00,WeatherCatV1.21B27,2013-10-11 09:46:00,
2013-10-11 05:51:00,52.8,51.1,30.07,South,169,0.0,0.0,94,0.00,,,0.00,WeatherCatV1.21B27,2013-10-11 09:51:00,
2013-10-11 05:56:00,52.7,51.0,30.08,South,169,0.0,0.0,94,0.00,,,0.00,WeatherCatV1.21B27,2013-10-11 09:56:00,
2013-10-11 06:01:00,52.6,50.9,30.08,South,169,0.0,0.0,94,0.00,,,0.00,WeatherCatV1.21B27,2013-10-11 10:01:00,
2013-10-11 06:06:00,52.4,50.7,30.08,South,169,0.0,0.0,94,0.00,,,0.00,WeatherCatV1.21B27,2013-10-11 10:06:00,
2013-10-11 06:11:00,52.3,50.6,30.08,South,169,0.0,0.0,94,0.00,,,0.00,WeatherCatV1.21B27,2013-10-11 10:11:00,
2013-10-11 06:16:00,52.1,50.4,30.08,South,169,0.0,0.0,94,0.00,,,0.00,WeatherCatV1.21B27,2013-10-11 10:16:00,
2013-10-11 06:21:00,51.9,50.2,30.08,South,169,0.0,0.0,94,0.00,,,0.00,WeatherCatV1.21B27,2013-10-11 10:21:00,
2013-10-11 06:26:00,51.7,50.0,30.08,South,169,0.0,0.0,94,0.00,,,0.00,WeatherCatV1.21B27,2013-10-11 10:26:00,
2013-10-11 06:31:00,51.6,49.9,30.08,South,169,0.0,0.0,94,0.00,,,0.00,WeatherCatV1.21B27,2013-10-11 10:31:00,
2013-10-11 06:36:00,51.4,50.0,30.08,South,169,0.0,0.0,95,0.00,,,0.00,WeatherCatV1.21B27,2013-10-11 10:36:00,
2013-10-11 06:41:00,51.4,50.0,30.08,South,169,0.0,0.0,95,0.00,,,0.00,WeatherCatV1.21B27,2013-10-11 10:41:00,
2013-10-11 06:46:00,51.3,49.9,30.08,South,169,0.0,0.0,95,0.00,,,0.00,WeatherCatV1.21B27,2013-10-11 10:46:00,
2013-10-11 06:51:00,51.3,49.9,30.08,South,169,0.0,0.0,95,0.00,,,0.00,WeatherCatV1.21B27,2013-10-11 10:51:00,
2013-10-11 06:56:00,51.3,50.2,30.08,South,169,0.0,0.0,96,0.00,,,0.00,WeatherCatV1.21B27,2013-10-11 10:56:00,
2013-10-11 07:01:00,51.4,50.3,30.08,South,169,0.0,0.0,96,0.00,,,0.00,WeatherCatV1.21B27,2013-10-11 11:01:00,
2013-10-11 07:06:00,51.5,50.4,30.08,South,169,0.0,0.0,96,0.00,,,0.00,WeatherCatV1.21B27,2013-10-11 11:06:00,
2013-10-11 07:11:00,51.5,50.4,30.07,South,169,0.0,0.0,96,0.00,,,0.00,WeatherCatV1.21B27,2013-10-11 11:11:00,
2013-10-11 07:16:00,51.7,50.6,30.08,South,169,0.0,0.0,96,0.00,,,0.00,WeatherCatV1.21B27,2013-10-11 11:16:00,
2013-10-11 07:21:00,51.7,50.6,30.08,SSE,159,0.0,0.0,96,0.00,,,0.00,WeatherCatV1.21B27,2013-10-11 11:21:00,
2013-10-11 07:26:00,51.8,50.7,30.08,SSE,159,0.0,0.0,96,0.00,,,0.00,WeatherCatV1.21B27,2013-10-11 11:26:00,
2013-10-11 07:31:00,51.9,50.8,30.08,SSE,159,0.0,0.0,96,0.00,,,0.00,WeatherCatV1.21B27,2013-10-11 11:31:00,
2013-10-11 07:36:00,52.1,51.0,30.08,SSE,159,0.0,0.0,96,0.00,,,0.00,WeatherCatV1.21B27,2013-10-11 11:36:00,
2013-10-11 07:41:00,52.1,51.0,30.08,SSE,159,0.0,0.0,96,0.00,,,0.00,WeatherCatV1.21B27,2013-10-11 11:41:00,
2013-10-11 07:46:00,52.3,51.2,30.08,SSE,159,0.0,0.0,96,0.00,,,0.00,WeatherCatV1.21B27,2013-10-11 11:46:00,
2013-10-11 07:51:00,52.4,51.3,30.08,SSE,159,0.0,0.0,96,0.00,,,0.00,WeatherCatV1.21B27,2013-10-11 11:51:00,
2013-10-11 07:56:00,52.6,51.5,30.08,SSE,159,0.0,0.0,96,0.00,,,0.00,WeatherCatV1.21B27,2013-10-11 11:56:00,
2013-10-11 08:01:00,52.8,51.7,30.08,SSE,159,0.0,0.0,96,0.00,,,0.00,WeatherCatV1.21B27,2013-10-11 12:01:00,
2013-10-11 08:06:00,53.0,51.9,30.08,SSE,159,0.0,0.0,96,0.00,,,0.00,WeatherCatV1.21B27,2013-10-11 12:06:00,
2013-10-11 08:11:00,53.1,51.7,30.08,SSE,159,0.0,0.0,95,0.00,,,0.00,WeatherCatV1.21B27,2013-10-11 12:11:00,
2013-10-11 08:16:00,53.4,52.0,30.08,SSE,159,0.0,0.0,95,0.00,,,0.00,WeatherCatV1.21B27,2013-10-11 12:16:00,
2013-10-11 08:21:00,53.6,51.9,30.08,SSE,159,0.0,0.0,94,0.00,,,0.00,WeatherCatV1.21B27,2013-10-11 12:21:00,
2013-10-11 08:26:00,53.8,52.1,30.08,SSE,159,0.0,0.0,94,0.00,,,0.00,WeatherCatV1.21B27,2013-10-11 12:26:00,
2013-10-11 08:31:00,53.9,51.9,30.08,SSE,159,0.0,0.0,93,0.00,,,0.00,WeatherCatV1.21B27,2013-10-11 12:31:00,
2013-10-11 08:36:00,54.2,51.9,30.08,SSE,159,0.0,0.0,92,0.00,,,0.00,WeatherCatV1.21B27,2013-10-11 12:36:00,
2013-10-11 08:41:00,54.4,51.8,30.08,SSE,159,0.0,0.0,91,0.00,,,0.00,WeatherCatV1.21B27,2013-10-11 12:41:00,
2013-10-11 08:46:00,54.7,51.8,30.08,SSE,159,0.0,0.0,90,0.00,,,0.00,WeatherCatV1.21B27,2013-10-11 12:46:00,
2013-10-11 08:51:00,54.9,51.7,30.09,NNE,23,0.0,2.0,89,0.00,,,0.00,WeatherCatV1.21B27,2013-10-11 12:51:00,
2013-10-11 08:56:00,55.3,52.1,30.08,NE,46,0.0,1.0,89,0.00,,,0.00,WeatherCatV1.21B27,2013-10-11 12:56:00,
2013-10-11 09:01:00,55.6,52.1,30.08,NE,46,0.0,1.0,88,0.00,,,0.00,WeatherCatV1.21B27,2013-10-11 13:01:00,
2013-10-11 09:06:00,55.9,52.1,30.08,NE,48,0.0,1.0,87,0.00,,,0.00,WeatherCatV1.21B27,2013-10-11 13:06:00,
2013-10-11 09:11:00,56.1,52.0,30.08,NNE,12,1.0,4.0,86,0.00,,,0.00,WeatherCatV1.21B27,2013-10-11 13:11:00,
2013-10-11 09:16:00,56.6,52.1,30.08,NNE,14,0.0,2.0,85,0.00,,,0.00,WeatherCatV1.21B27,2013-10-11 13:16:00,
2013-10-11 09:21:00,57.1,52.6,30.08,NNE,20,0.0,1.0,85,0.00,,,0.00,WeatherCatV1.21B27,2013-10-11 13:21:00,
2013-10-11 09:26:00,57.6,52.8,30.09,NE,44,1.0,3.0,84,0.00,,,0.00,WeatherCatV1.21B27,2013-10-11 13:26:00,
2013-10-11 09:31:00,58.0,52.9,30.09,NNE,15,0.0,0.0,83,0.00,,,0.00,WeatherCatV1.21B27,2013-10-11 13:31:00,
2013-10-11 09:36:00,58.6,53.1,30.09,NNE,17,0.0,0.0,82,0.00,,,0.00,WeatherCatV1.21B27,2013-10-11 13:36:00,
2013-10-11 09:41:00,59.0,53.2,30.09,NNE,22,0.0,0.0,81,0.00,,,0.00,WeatherCatV1.21B27,2013-10-11 13:41:00,
2013-10-11 09:46:00,59.1,52.9,30.09,East,84,0.0,0.0,80,0.00,,,0.00,WeatherCatV1.21B27,2013-10-11 13:46:00,
2013-10-11 09:51:00,59.2,53.4,30.09,NNE,33,0.0,0.0,81,0.00,,,0.00,WeatherCatV1.21B27,2013-10-11 13:51:00,
2013-10-11 09:56:00,59.4,53.2,30.09,NW,319,0.0,0.0,80,0.00,,,0.00,WeatherCatV1.21B27,2013-10-11 13:56:00,
2013-10-11 10:01:00,59.4,53.2,30.09,North,357,1.0,1.0,80,0.00,,,0.00,WeatherCatV1.21B27,2013-10-11 14:01:00,
2013-10-11 10:06:00,59.6,53.4,30.09,ENE,63,2.0,3.0,80,0.00,,,0.00,WeatherCatV1.21B27,2013-10-11 14:06:00,
2013-10-11 10:11:00,59.9,53.4,30.09,North,11,2.0,2.0,79,0.00,,,0.00,WeatherCatV1.21B27,2013-10-11 14:11:00,
2013-10-11 10:16:00,60.2,53.7,30.09,NE,47,0.0,0.0,79,0.00,,,0.00,WeatherCatV1.21B27,2013-10-11 14:16:00,
2013-10-11 10:21:00,60.4,53.5,30.08,NE,42,1.0,1.0,78,0.00,,,0.00,WeatherCatV1.21B27,2013-10-11 14:21:00,
2013-10-11 10:26:00,60.4,53.5,30.08,East,80,0.0,3.0,78,0.00,,,0.00,WeatherCatV1.21B27,2013-10-11 14:26:00,
2013-10-11 10:31:00,60.5,53.6,30.08,NNE,24,0.0,2.0,78,0.00,,,0.00,WeatherCatV1.21B27,2013-10-11 14:31:00,
2013-10-11 10:36:00,60.5,53.6,30.08,NNE,15,4.0,4.0,78,0.00,,,0.00,WeatherCatV1.21B27,2013-10-11 14:36:00,
2013-10-11 10:41:00,60.8,53.9,30.08,East,80,0.0,1.0,78,0.00,,,0.00,WeatherCatV1.21B27,2013-10-11 14:41:00,
2013-10-11 10:46:00,61.1,54.2,30.08,NE,34,0.0,1.0,78,0.00,,,0.00,WeatherCatV1.21B27,2013-10-11 14:46:00,
2013-10-11 10:51:00,61.3,54.0,30.08,North,357,2.0,5.0,77,0.00,,,0.00,WeatherCatV1.21B27,2013-10-11 14:51:00,
2013-10-11 10:56:00,61.5,54.2,30.08,North,11,0.0,3.0,77,0.00,,,0.00,WeatherCatV1.21B27,2013-10-11 14:56:00,
2013-10-11 11:01:00,61.7,54.4,30.08,NNE,12,3.0,4.0,77,0.00,,,0.00,WeatherCatV1.21B27,2013-10-11 15:01:00,
2013-10-11 11:06:00,62.0,54.7,30.08,NE,53,1.0,1.0,77,0.00,,,0.00,WeatherCatV1.21B27,2013-10-11 15:06:00,
2013-10-11 11:11:00,62.2,54.5,30.08,NE,43,0.0,3.0,76,0.00,,,0.00,WeatherCatV1.21B27,2013-10-11 15:11:00,
2013-10-11 11:16:00,62.2,54.5,30.08,North,357,1.0,3.0,76,0.00,,,0.00,WeatherCatV1.21B27,2013-10-11 15:16:00,
2013-10-11 11:21:00,62.4,54.7,30.08,NNE,15,0.0,3.0,76,0.00,,,0.00,WeatherCatV1.21B27,2013-10-11 15:21:00,
2013-10-11 11:26:00,62.5,55.2,30.08,NNE,12,0.0,3.0,77,0.00,,,0.00,WeatherCatV1.21B27,2013-10-11 15:26:00,
2013-10-11 11:31:00,62.7,55.0,30.08,ENE,60,0.0,3.0,76,0.00,,,0.00,WeatherCatV1.21B27,2013-10-11 15:31:00,
2013-10-11 11:36:00,62.8,55.5,30.08,NE,46,0.0,1.0,77,0.00,,,0.00,WeatherCatV1.21B27,2013-10-11 15:36:00,
2013-10-11 11:41:00,62.9,55.2,30.08,ENE,69,0.0,2.0,76,0.00,,,0.00,WeatherCatV1.21B27,2013-10-11 15:41:00,
2013-10-11 11:46:00,62.7,55.0,30.08,NNE,13,0.0,2.0,76,0.00,,,0.00,WeatherCatV1.21B27,2013-10-11 15:46:00,
2013-10-11 11:51:00,62.5,55.2,30.08,ESE,102,2.0,2.0,77,0.00,,,0.00,WeatherCatV1.21B27,2013-10-11 15:51:00,
2013-10-11 11:56:00,62.4,55.8,30.08,NNE,15,2.0,4.0,79,0.00,,,0.00,WeatherCatV1.21B27,2013-10-11 15:56:00,
2013-10-11 12:01:00,62.4,55.8,30.08,NE,45,0.0,1.0,79,0.00,,,0.00,WeatherCatV1.21B27,2013-10-11 16:01:00,
2013-10-11 12:06:00,62.7,56.1,30.08,ENE,73,1.0,3.0,79,0.00,,,0.00,WeatherCatV1.21B27,2013-10-11 16:06:00,
2013-10-11 12:11:00,62.7,56.1,30.08,NE,38,0.0,1.0,79,0.00,,,0.00,WeatherCatV1.21B27,2013-10-11 16:11:00,
2013-10-11 12:16:00,62.7,56.1,30.08,NE,46,0.0,2.0,79,0.00,,,0.00,WeatherCatV1.21B27,2013-10-11 16:16:00,
2013-10-11 12:21:00,62.7,55.7,30.08,NNE,14,2.0,2.0,78,0.00,,,0.00,WeatherCatV1.21B27,2013-10-11 16:21:00,
2013-10-11 12:26:00,62.8,55.5,30.08,North,7,2.0,5.0,77,0.00,,,0.00,WeatherCatV1.21B27,2013-10-11 16:26:00,
2013-10-11 12:31:00,63.0,55.7,30.08,ENE,57,0.0,2.0,77,0.00,,,0.00,WeatherCatV1.21B27,2013-10-11 16:31:00,
2013-10-11 12:36:00,63.2,55.9,30.08,ENE,59,1.0,1.0,77,0.00,,,0.00,WeatherCatV1.21B27,2013-10-11 16:36:00,
2013-10-11 12:41:00,63.4,55.0,30.08,ENE,71,3.0,5.0,74,0.00,,,0.00,WeatherCatV1.21B27,2013-10-11 16:41:00,
2013-10-11 12:46:00,63.3,54.9,30.08,SE,136,1.0,2.0,74,0.00,,,0.00,WeatherCatV1.21B27,2013-10-11 16:46:00,
2013-10-11 12:51:00,63.2,55.1,30.08,East,90,0.0,2.0,75,0.00,,,0.00,WeatherCatV1.21B27,2013-10-11 16:51:00,
2013-10-11 12:56:00,63.3,55.6,30.07,North,7,1.0,2.0,76,0.00,,,0.00,WeatherCatV1.21B27,2013-10-11 16:56:00,
2013-10-11 13:01:00,63.5,55.4,30.07,NNE,12,2.0,3.0,75,0.00,,,0.00,WeatherCatV1.21B27,2013-10-11 17:01:00,
2013-10-11 13:06:00,63.6,55.2,30.07,NNE,29,0.0,5.0,74,0.00,,,0.00,WeatherCatV1.21B27,2013-10-11 17:06:00,
2013-10-11 13:11:00,63.7,55.2,30.07,NNE,27,0.0,1.0,74,0.00,,,0.00,WeatherCatV1.21B27,2013-10-11 17:11:00,
2013-10-11 13:16:00,63.9,55.1,30.07,North,2,0.0,3.0,73,0.00,,,0.00,WeatherCatV1.21B27,2013-10-11 17:16:00,
2013-10-11 13:21:00,64.0,55.2,30.07,NE,36,0.0,1.0,73,0.00,,,0.00,WeatherCatV1.21B27,2013-10-11 17:21:00,
2013-10-11 13:26:00,64.1,54.5,30.07,NNE,19,3.0,4.0,71,0.00,,,0.00,WeatherCatV1.21B27,2013-10-11 17:26:00,
2013-10-11 13:31:00,64.1,54.5,30.07,NNE,29,1.0,2.0,71,0.00,,,0.00,WeatherCatV1.21B27,2013-10-11 17:31:00,
2013-10-11 13:36:00,64.1,54.9,30.06,NE,50,0.0,4.0,72,0.00,,,0.00,WeatherCatV1.21B27,2013-10-11 17:36:00,
2013-10-11 13:41:00,64.1,54.9,30.06,NNE,12,1.0,4.0,72,0.00,,,0.00,WeatherCatV1.21B27,2013-10-11 17:41:00,
2013-10-11 13:46:00,63.9,54.3,30.06,NE,38,1.0,4.0,71,0.00,,,0.00,WeatherCatV1.21B27,2013-10-11 17:46:00,
2013-10-11 13:51:00,63.8,54.6,30.06,NNE,15,0.0,3.0,72,0.00,,,0.00,WeatherCatV1.21B27,2013-10-11 17:51:00,
2013-10-11 13:56:00,63.8,54.6,30.06,East,100,0.0,3.0,72,0.00,,,0.00,WeatherCatV1.21B27,2013-10-11 17:56:00,
2013-10-11 14:01:00,63.8,55.0,30.06,North,7,5.0,6.0,73,0.00,,,0.00,WeatherCatV1.21B27,2013-10-11 18:01:00,
2013-10-11 14:06:00,63.8,55.0,30.06,NNE,31,2.0,2.0,73,0.00,,,0.00,WeatherCatV1.21B27,2013-10-11 18:06:00,
2013-10-11 14:11:00,63.8,54.6,30.05,NNE,33,0.0,1.0,72,0.00,,,0.00,WeatherCatV1.21B27,2013-10-11 18:11:00,
2013-10-11 14:16:00,63.8,54.6,30.05,NE,53,0.0,2.0,72,0.00,,,0.00,WeatherCatV1.21B27,2013-10-11 18:16:00,
2013-10-11 14:21:00,63.6,54.4,30.05,ENE,76,0.0,2.0,72,0.00,,,0.00,WeatherCatV1.21B27,2013-10-11 18:21:00,
2013-10-11 14:26:00,63.2,54.0,30.05,East,100,0.0,2.0,72,0.00,,,0.00,WeatherCatV1.21B27,2013-10-11 18:26:00,
2013-10-11 14:31:00,63.0,53.4,30.05,North,7,2.0,3.0,71,0.00,,,0.00,WeatherCatV1.21B27,2013-10-11 18:31:00,
2013-10-11 14:36:00,62.8,53.2,30.05,ESE,107,1.0,1.0,71,0.00,,,0.00,WeatherCatV1.21B27,2013-10-11 18:36:00,
2013-10-11 14:41:00,62.6,52.7,30.05,ENE,67,0.0,2.0,70,0.00,,,0.00,WeatherCatV1.21B27,2013-10-11 18:41:00,
2013-10-11 14:46:00,62.6,52.7,30.05,NNE,21,1.0,5.0,70,0.00,,,0.00,WeatherCatV1.21B27,2013-10-11 18:46:00,
2013-10-11 14:51:00,62.6,52.3,30.05,ENE,73,2.0,2.0,69,0.00,,,0.00,WeatherCatV1.21B27,2013-10-11 18:51:00,
2013-10-11 14:56:00,62.5,52.2,30.05,NNE,15,0.0,2.0,69,0.00,,,0.00,WeatherCatV1.21B27,2013-10-11 18:56:00,
2013-10-11 15:01:00,62.4,51.7,30.05,ENE,62,1.0,2.0,68,0.00,,,0.00,WeatherCatV1.21B27,2013-10-11 19:01:00,
2013-10-11 15:06:00,62.5,51.0,30.05,NE,51,0.0,3.0,66,0.00,,,0.00,WeatherCatV1.21B27,2013-10-11 19:06:00,
2013-10-11 15:11:00,62.6,50.7,30.04,NNE,15,2.0,3.0,65,0.00,,,0.00,WeatherCatV1.21B27,2013-10-11 19:11:00,
2013-10-11 15:16:00,62.6,50.2,30.05,ESE,114,0.0,3.0,64,0.00,,,0.00,WeatherCatV1.21B27,2013-10-11 19:16:00,
2013-10-11 15:21:00,62.5,50.2,30.05,NE,40,1.0,4.0,64,0.00,,,0.00,WeatherCatV1.21B27,2013-10-11 19:21:00,
2013-10-11 15:26:00,62.5,48.4,30.05,ENE,66,3.0,6.0,60,0.00,,,0.00,WeatherCatV1.21B27,2013-10-11 19:26:00,
2013-10-11 15:31:00,62.6,48.5,30.05,North,357,1.0,4.0,60,0.00,,,0.00,WeatherCatV1.21B27,2013-10-11 19:31:00,
2013-10-11 15:36:00,62.9,48.3,30.05,North,7,0.0,7.0,59,0.00,,,0.00,WeatherCatV1.21B27,2013-10-11 19:36:00,
2013-10-11 15:41:00,62.9,48.8,30.04,ENE,77,0.0,2.0,60,0.00,,,0.00,WeatherCatV1.21B27,2013-10-11 19:41:00,
2013-10-11 15:46:00,62.9,49.7,30.04,NNE,15,0.0,3.0,62,0.00,,,0.00,WeatherCatV1.21B27,2013-10-11 19:46:00,
2013-10-11 15:51:00,62.7,49.5,30.05,North,11,0.0,2.0,62,0.00,,,0.00,WeatherCatV1.21B27,2013-10-11 19:51:00,
2013-10-11 15:56:00,62.7,49.5,30.05,NNE,21,0.0,1.0,62,0.00,,,0.00,WeatherCatV1.21B27,2013-10-11 19:56:00,
2013-10-11 16:01:00,62.6,49.8,30.05,East,101,0.0,3.0,63,0.00,,,0.00,WeatherCatV1.21B27,2013-10-11 20:01:00,
2013-10-11 16:06:00,62.6,49.8,30.05,North,2,0.0,3.0,63,0.00,,,0.00,WeatherCatV1.21B27,2013-10-11 20:06:00,
2013-10-11 16:11:00,62.5,48.4,30.05,NNE,14,0.0,3.0,60,0.00,,,0.00,WeatherCatV1.21B27,2013-10-11 20:11:00,
2013-10-11 16:16:00,62.9,49.7,30.05,NNE,17,1.0,4.0,62,0.00,,,0.00,WeatherCatV1.21B27,2013-10-11 20:16:00,
2013-10-11 16:21:00,63.5,49.8,30.05,North,7,3.0,4.0,61,0.00,,,0.00,WeatherCatV1.21B27,2013-10-11 20:21:00,
2013-10-11 16:26:00,63.7,49.5,30.05,ENE,65,0.0,0.0,60,0.00,,,0.00,WeatherCatV1.21B27,2013-10-11 20:26:00,
2013-10-11 16:31:00,63.3,50.0,30.05,ENE,76,0.0,2.0,62,0.00,,,0.00,WeatherCatV1.21B27,2013-10-11 20:31:00,
2013-10-11 16:36:00,62.7,50.3,30.05,ENE,75,0.0,3.0,64,0.00,,,0.00,WeatherCatV1.21B27,2013-10-11 20:36:00,
2013-10-11 16:41:00,62.3,50.8,30.05,ENE,70,0.0,1.0,66,0.00,,,0.00,WeatherCatV1.21B27,2013-10-11 20:41:00,
2013-10-11 16:46:00,62.1,51.4,30.05,ENE,62,0.0,0.0,68,0.00,,,0.00,WeatherCatV1.21B27,2013-10-11 20:46:00,
2013-10-11 16:51:00,61.8,51.9,30.05,NE,44,0.0,0.0,70,0.00,,,0.00,WeatherCatV1.21B27,2013-10-11 20:51:00,
2013-10-11 16:56:00,61.6,52.5,30.05,ENE,68,0.0,0.0,72,0.00,,,0.00,WeatherCatV1.21B27,2013-10-11 20:56:00,
2013-10-11 17:01:00,61.4,52.3,30.05,NNE,27,0.0,1.0,72,0.00,,,0.00,WeatherCatV1.21B27,2013-10-11 21:01:00,
2013-10-11 17:06:00,61.1,52.0,30.05,NNE,17,0.0,2.0,72,0.00,,,0.00,WeatherCatV1.21B27,2013-10-11 21:06:00,
2013-10-11 17:11:00,60.9,51.8,30.05,NNE,17,0.0,0.0,72,0.00,,,0.00,WeatherCatV1.21B27,2013-10-11 21:11:00,
2013-10-11 17:16:00,60.6,51.5,30.05,NNE,17,0.0,0.0,72,0.00,,,0.00,WeatherCatV1.21B27,2013-10-11 21:16:00,
2013-10-11 17:21:00,60.3,51.2,30.05,NNE,18,0.0,1.0,72,0.00,,,0.00,WeatherCatV1.21B27,2013-10-11 21:21:00,
2013-10-11 17:26:00,59.9,50.8,30.05,NNE,18,0.0,0.0,72,0.00,,,0.00,WeatherCatV1.21B27,2013-10-11 21:26:00,
2013-10-11 17:31:00,59.6,50.9,30.05,NNE,18,0.0,0.0,73,0.00,,,0.00,WeatherCatV1.21B27,2013-10-11 21:31:00,
2013-10-11 17:36:00,59.4,51.1,30.05,NNE,18,0.0,0.0,74,0.00,,,0.00,WeatherCatV1.21B27,2013-10-11 21:36:00,
2013-10-11 17:41:00,59.2,50.9,30.06,NNE,18,0.0,0.0,74,0.00,,,0.00,WeatherCatV1.21B27,2013-10-11 21:41:00,
2013-10-11 17:46:00,58.9,51.0,30.06,NNE,18,0.0,0.0,75,0.00,,,0.00,WeatherCatV1.21B27,2013-10-11 21:46:00,
2013-10-11 17:51:00,58.7,51.5,30.06,NNE,18,0.0,0.0,77,0.00,,,0.00,WeatherCatV1.21B27,2013-10-11 21:51:00,
2013-10-11 17:56:00,58.4,51.2,30.06,NNE,18,0.0,0.0,77,0.00,,,0.00,WeatherCatV1.21B27,2013-10-11 21:56:00,
2013-10-11 18:01:00,58.1,51.3,30.06,NNE,18,0.0,0.0,78,0.00,,,0.00,WeatherCatV1.21B27,2013-10-11 22:01:00,
2013-10-11 18:06:00,57.8,51.3,30.06,NNE,18,0.0,0.0,79,0.00,,,0.00,WeatherCatV1.21B27,2013-10-11 22:06:00,
2013-10-11 18:11:00,57.5,51.0,30.06,NNE,18,0.0,0.0,79,0.00,,,0.00,WeatherCatV1.21B27,2013-10-11 22:11:00,
2013-10-11 18:16:00,57.3,50.8,30.06,NNE,18,0.0,0.0,79,0.00,,,0.00,WeatherCatV1.21B27,2013-10-11 22:16:00,
2013-10-11 18:21:00,57.0,50.5,30.06,NNE,18,0.0,0.0,79,0.00,,,0.00,WeatherCatV1.21B27,2013-10-11 22:21:00,
2013-10-11 18:26:00,56.7,50.6,30.06,NNE,18,0.0,0.0,80,0.00,,,0.00,WeatherCatV1.21B27,2013-10-11 22:26:00,
2013-10-11 18:31:00,56.5,50.7,30.06,NNE,18,0.0,0.0,81,0.00,,,0.00,WeatherCatV1.21B27,2013-10-11 22:31:00,
2013-10-11 18:36:00,56.4,50.6,30.06,NNE,18,0.0,0.0,81,0.00,,,0.00,WeatherCatV1.21B27,2013-10-11 22:36:00,
2013-10-11 18:41:00,56.2,50.8,30.06,NNE,18,0.0,0.0,82,0.00,,,0.00,WeatherCatV1.21B27,2013-10-11 22:41:00,
2013-10-11 18:46:00,55.9,50.5,30.07,NNE,18,0.0,0.0,82,0.00,,,0.00,WeatherCatV1.21B27,2013-10-11 22:46:00,
2013-10-11 18:51:00,55.7,50.6,30.07,NNE,18,0.0,0.0,83,0.00,,,0.00,WeatherCatV1.21B27,2013-10-11 22:51:00,
2013-10-11 18:56:00,55.4,50.6,30.07,NNE,18,0.0,0.0,84,0.00,,,0.00,WeatherCatV1.21B27,2013-10-11 22:56:00,
2013-10-11 19:01:00,55.1,50.3,30.07,NNE,18,0.0,0.0,84,0.00,,,0.00,WeatherCatV1.21B27,2013-10-11 23:01:00,
2013-10-11 19:06:00,55.0,50.6,30.07,NNE,18,0.0,0.0,85,0.00,,,0.00,WeatherCatV1.21B27,2013-10-11 23:06:00,
2013-10-11 19:11:00,54.9,50.5,30.07,NNE,18,0.0,0.0,85,0.00,,,0.00,WeatherCatV1.21B27,2013-10-11 23:11:00,
2013-10-11 19:16:00,54.7,50.6,30.07,NNE,18,0.0,0.0,86,0.00,,,0.00,WeatherCatV1.21B27,2013-10-11 23:16:00,
2013-10-11 19:21:00,54.6,50.5,30.07,NNE,18,0.0,0.0,86,0.00,,,0.00,WeatherCatV1.21B27,2013-10-11 23:21:00,
2013-10-11 19:26:00,54.5,50.7,30.07,NNE,18,0.0,0.0,87,0.00,,,0.00,WeatherCatV1.21B27,2013-10-11 23:26:00,
2013-10-11 19:31:00,54.4,50.6,30.07,NNE,18,0.0,0.0,87,0.00,,,0.00,WeatherCatV1.21B27,2013-10-11 23:31:00,
2013-10-11 19:36:00,54.2,50.7,30.07,NNE,18,0.0,0.0,88,0.00,,,0.00,WeatherCatV1.21B27,2013-10-11 23:36:00,
2013-10-11 19:41:00,54.1,50.6,30.07,NNE,18,0.0,0.0,88,0.00,,,0.00,WeatherCatV1.21B27,2013-10-11 23:41:00,
2013-10-11 19:46:00,54.0,50.8,30.07,NNE,18,0.0,0.0,89,0.00,,,0.00,WeatherCatV1.21B27,2013-10-11 23:46:00,
2013-10-11 19:51:00,53.9,50.7,30.07,NNE,18,0.0,0.0,89,0.00,,,0.00,WeatherCatV1.21B27,2013-10-11 23:51:00,
2013-10-11 19:56:00,53.8,50.6,30.07,NNE,18,0.0,0.0,89,0.00,,,0.00,WeatherCatV1.21B27,2013-10-11 23:56:00,
2013-10-11 20:01:00,53.7,50.5,30.08,NNE,18,0.0,0.0,89,0.00,,,0.00,WeatherCatV1.21B27,2013-10-12 00:01:00,
2013-10-11 20:06:00,53.6,50.7,30.07,NNE,18,0.0,0.0,90,0.00,,,0.00,WeatherCatV1.21B27,2013-10-12 00:06:00,
2013-10-11 20:11:00,53.5,50.6,30.08,NNE,18,0.0,0.0,90,0.00,,,0.00,WeatherCatV1.21B27,2013-10-12 00:11:00,
2013-10-11 20:16:00,53.4,50.5,30.08,NNE,18,0.0,0.0,90,0.00,,,0.00,WeatherCatV1.21B27,2013-10-12 00:16:00,
2013-10-11 20:21:00,53.4,50.5,30.08,NNE,18,0.0,0.0,90,0.00,,,0.00,WeatherCatV1.21B27,2013-10-12 00:21:00,
2013-10-11 20:26:00,53.3,50.4,30.08,NNE,18,0.0,0.0,90,0.00,,,0.00,WeatherCatV1.21B27,2013-10-12 00:26:00,
2013-10-11 20:31:00,53.2,50.3,30.08,NNE,18,0.0,0.0,90,0.00,,,0.00,WeatherCatV1.21B27,2013-10-12 00:31:00,
2013-10-11 20:36:00,53.0,50.1,30.08,NNE,18,0.0,0.0,90,0.00,,,0.00,WeatherCatV1.21B27,2013-10-12 00:36:00,
2013-10-11 20:41:00,52.9,50.0,30.08,NNE,18,0.0,0.0,90,0.00,,,0.00,WeatherCatV1.21B27,2013-10-12 00:41:00,
2013-10-11 20:46:00,52.8,50.0,30.07,NNE,18,0.0,0.0,90,0.00,,,0.00,WeatherCatV1.21B27,2013-10-12 00:46:00,
2013-10-11 20:51:00,52.8,50.2,30.08,NNE,18,0.0,0.0,91,0.00,,,0.00,WeatherCatV1.21B27,2013-10-12 00:51:00,
2013-10-11 20:56:00,52.7,50.2,30.08,NNE,18,0.0,0.0,91,0.00,,,0.00,WeatherCatV1.21B27,2013-10-12 00:56:00,
2013-10-11 21:01:00,52.7,50.2,30.08,NNE,18,0.0,0.0,91,0.00,,,0.00,WeatherCatV1.21B27,2013-10-12 01:01:00,
2013-10-11 21:06:00,52.7,50.4,30.07,NNE,18,0.0,0.0,92,0.00,,,0.00,WeatherCatV1.21B27,2013-10-12 01:06:00,
2013-10-11 21:11:00,52.6,50.3,30.07,NNE,18,0.0,0.0,92,0.00,,,0.00,WeatherCatV1.21B27,2013-10-12 01:11:00,
2013-10-11 21:16:00,52.6,50.3,30.08,NNE,18,0.0,0.0,92,0.00,,,0.00,WeatherCatV1.21B27,2013-10-12 01:16:00,
2013-10-11 21:21:00,52.5,50.2,30.08,NNE,18,0.0,0.0,92,0.00,,,0.00,WeatherCatV1.21B27,2013-10-12 01:21:00,
2013-10-11 21:26:00,52.4,50.1,30.08,NNE,18,0.0,0.0,92,0.00,,,0.00,WeatherCatV1.21B27,2013-10-12 01:26:00,
2013-10-11 21:31:00,52.4,50.1,30.08,NNE,18,0.0,0.0,92,0.00,,,0.00,WeatherCatV1.21B27,2013-10-12 01:31:00,
2013-10-11 21:36:00,52.3,50.0,30.08,NNE,18,0.0,0.0,92,0.00,,,0.00,WeatherCatV1.21B27,2013-10-12 01:36:00,
2013-10-11 21:41:00,52.2,50.0,30.08,NNE,18,0.0,0.0,92,0.00,,,0.00,WeatherCatV1.21B27,2013-10-12 01:41:00,
2013-10-11 21:46:00,52.1,49.8,30.08,NNE,18,0.0,0.0,92,0.00,,,0.00,WeatherCatV1.21B27,2013-10-12 01:46:00,
2013-10-11 21:51:00,52.0,49.8,30.09,NNE,18,0.0,0.0,92,0.00,,,0.00,WeatherCatV1.21B27,2013-10-12 01:51:00,
2013-10-11 21:56:00,51.9,49.7,30.09,NNE,18,0.0,0.0,92,0.00,,,0.00,WeatherCatV1.21B27,2013-10-12 01:56:00,
2013-10-11 22:01:00,51.8,49.5,30.09,NNE,18,0.0,0.0,92,0.00,,,0.00,WeatherCatV1.21B27,2013-10-12 02:01:00,
2013-10-11 22:06:00,51.6,49.3,30.09,NNE,18,0.0,0.0,92,0.00,,,0.00,WeatherCatV1.21B27,2013-10-12 02:06:00,
2013-10-11 22:07:00,51.6,49.3,30.09,NNE,18,0.0,0.0,92,0.00,,,0.00,WeatherCatV1.21B27,2013-10-12 02:07:00,
2013-10-11 22:12:00,51.5,49.5,30.09,NNE,18,0.0,0.0,93,0.00,,,0.00,WeatherCatV1.21B27,2013-10-12 02:12:00,
2013-10-11 22:17:00,51.4,49.4,30.09,NNE,18,0.0,0.0,93,0.00,,,0.00,WeatherCatV1.21B27,2013-10-12 02:17:00,
2013-10-11 22:22:00,51.3,49.3,30.09,NNE,18,0.0,0.0,93,0.00,,,0.00,WeatherCatV1.21B27,2013-10-12 02:22:00,
2013-10-11 22:27:00,51.2,49.2,30.09,NNE,18,0.0,0.0,93,0.00,,,0.00,WeatherCatV1.21B27,2013-10-12 02:27:00,
2013-10-11 22:32:00,51.1,49.2,30.09,NNE,18,0.0,0.0,93,0.00,,,0.00,WeatherCatV1.21B27,2013-10-12 02:32:00,
2013-10-11 22:37:00,51.0,49.0,30.09,NNE,18,0.0,0.0,93,0.00,,,0.00,WeatherCatV1.21B27,2013-10-12 02:37:00,
2013-10-11 22:42:00,50.9,49.0,30.09,NNE,18,0.0,0.0,93,0.00,,,0.00,WeatherCatV1.21B27,2013-10-12 02:42:00,
2013-10-11 22:47:00,50.9,49.0,30.09,NNE,18,0.0,0.0,93,0.00,,,0.00,WeatherCatV1.21B27,2013-10-12 02:47:00,
2013-10-11 22:52:00,50.9,49.2,30.09,NNE,18,0.0,0.0,94,0.00,,,0.00,WeatherCatV1.21B27,2013-10-12 02:52:00,
2013-10-11 22:57:00,50.9,49.2,30.09,NNE,18,0.0,0.0,94,0.00,,,0.00,WeatherCatV1.21B27,2013-10-12 02:57:00,
2013-10-11 23:02:00,50.8,49.1,30.09,NNE,18,0.0,0.0,94,0.00,,,0.00,WeatherCatV1.21B27,2013-10-12 03:02:00,
2013-10-11 23:07:00,50.8,49.1,30.09,NNE,18,0.0,0.0,94,0.00,,,0.00,WeatherCatV1.21B27,2013-10-12 03:07:00,
2013-10-11 23:12:00,50.8,49.1,30.09,NNE,18,0.0,0.0,94,0.00,,,0.00,WeatherCatV1.21B27,2013-10-12 03:12:00,
2013-10-11 23:17:00,50.8,49.1,30.09,NNE,18,0.0,0.0,94,0.00,,,0.00,WeatherCatV1.21B27,2013-10-12 03:17:00,
2013-10-11 23:22:00,50.8,49.1,30.09,NNE,18,0.0,0.0,94,0.00,,,0.00,WeatherCatV1.21B27,2013-10-12 03:22:00,
2013-10-11 23:27:00,50.7,49.0,30.09,NNE,18,0.0,0.0,94,0.00,,,0.00,WeatherCatV1.21B27,2013-10-12 03:27:00,
2013-10-11 23:32:00,50.7,49.0,30.09,NNE,18,0.0,0.0,94,0.00,,,0.00,WeatherCatV1.21B27,2013-10-12 03:32:00,
2013-10-11 23:37:00,50.6,48.9,30.09,NNE,18,0.0,0.0,94,0.00,,,0.00,WeatherCatV1.21B27,2013-10-12 03:37:00,
2013-10-11 23:42:00,50.6,48.9,30.08,NNE,18,0.0,0.0,94,0.00,,,0.00,WeatherCatV1.21B27,2013-10-12 03:42:00,
2013-10-11 23:47:00,50.6,48.9,30.09,NNE,18,0.0,0.0,94,0.00,,,0.00,WeatherCatV1.21B27,2013-10-12 03:47:00,
2013-10-11 23:52:00,50.5,48.8,30.08,NNE,18,0.0,0.0,94,0.00,,,0.00,WeatherCatV1.21B27,2013-10-12 03:52:00,
2013-10-11 23:57:00,50.5,48.8,30.08,NNE,18,0.0,0.0,94,0.00,,,0.00,WeatherCatV1.21B27,2013-10-12 03:57:00,